User: anonymous   Login
Location: Unspecified
(0.0000°N, 0.0000°E)
Time: 22:21:07
(UTC+00:00)
Language:

STARLINK-11497 [DTC] - Orbit

View from above orbital plane
View from above orbital plane
View from above satellite
View from above satellite

Ground track
Ground track

The orbit is defined by the following mean orbital elements,

1 62470U          26145.01133400 +.00000000 +00000-0 +12876-2 0 00008
2 62470  43.0034 123.0281 0003478 271.2448  88.8021 15.70944007    06
Epoch (UTC): 25 May 2026 00:16:19
Eccentricity: 0.0003478
inclination: 43.0034°
perigee height: 354 km
apogee height: 359 km
right ascension of ascending node: 123.0281°
argument of perigee: 271.2448°
revolutions per day: 15.70944007
mean anomaly at epoch: 88.8021°

The dashed part of the orbit path shows where the satellite is in the earth's shadow,  

DLR